Time,TemperatureF,DewpointF,PressureIn,WindDirection,WindDirectionDegrees,WindSpeedMPH,WindSpeedGustMPH,Humidity,HourlyPrecipIn,Conditions,Clouds,dailyrainin,SoftwareType,DateUTC
2013-02-26 00:00:00,47.1,45.2,30.12,ENE,60,0.0,1.0,93,0.00,,OVC015,0.17,VWS V14.01,2013-02-26 05:00:00,
2013-02-26 00:03:00,47.1,45.2,30.13,ENE,62,0.0,0.0,93,0.00,,OVC030,0.00,VWS V14.01,2013-02-26 05:03:00,
2013-02-26 00:08:00,47.3,45.4,30.13,NE,36,0.0,5.0,93,0.00,,OVC030,0.00,VWS V14.01,2013-02-26 05:08:00,
2013-02-26 00:13:00,47.4,45.5,30.13,NNW,328,0.0,2.0,93,0.00,,OVC030,0.00,VWS V14.01,2013-02-26 05:13:00,
2013-02-26 00:18:00,47.6,45.7,30.12,North,0,0.0,2.0,93,0.00,,OVC030,0.00,VWS V14.01,2013-02-26 05:18:00,
2013-02-26 00:23:00,47.7,45.8,30.12,NE,42,0.0,0.0,93,0.00,,OVC030,0.00,VWS V14.01,2013-02-26 05:23:00,
2013-02-26 00:28:00,47.7,45.8,30.12,NE,41,0.0,0.0,93,0.00,,OVC030,0.00,VWS V14.01,2013-02-26 05:28:00,
2013-02-26 00:33:00,47.7,45.8,30.12,North,358,0.0,0.0,93,0.00,,OVC030,0.00,VWS V14.01,2013-02-26 05:33:00,
2013-02-26 00:38:00,47.9,46.0,30.12,NW,324,0.0,1.0,93,0.00,,OVC030,0.00,VWS V14.01,2013-02-26 05:38:00,
2013-02-26 00:43:00,48.0,46.1,30.12,West,264,0.0,0.0,93,0.00,,OVC030,0.00,VWS V14.01,2013-02-26 05:43:00,
2013-02-26 00:48:00,48.0,46.1,30.11,North,9,0.0,1.0,93,0.00,,OVC030,0.00,VWS V14.01,2013-02-26 05:48:00,
2013-02-26 00:53:00,48.2,46.3,30.11,NNW,342,0.0,0.0,93,0.00,,OVC030,0.00,VWS V14.01,2013-02-26 05:53:00,
2013-02-26 00:58:00,48.3,46.4,30.11,NNE,33,0.0,2.0,93,0.00,,OVC030,0.00,VWS V14.01,2013-02-26 05:58:00,
2013-02-26 01:03:00,48.3,46.4,30.10,North,0,0.0,0.0,93,0.00,,OVC030,0.00,VWS V14.01,2013-02-26 06:03:00,
2013-02-26 01:08:00,48.5,46.9,30.10,NE,56,0.0,3.0,94,0.00,,OVC030,0.00,VWS V14.01,2013-02-26 06:08:00,
2013-02-26 01:13:00,48.5,46.9,30.10,ENE,74,0.0,3.0,94,0.00,,OVC030,0.00,VWS V14.01,2013-02-26 06:13:00,
2013-02-26 01:18:00,48.6,47.0,30.10,NE,37,0.0,0.0,94,0.01,,OVC030,0.01,VWS V14.01,2013-02-26 06:18:00,
2013-02-26 01:23:00,48.8,47.2,30.10,North,354,0.0,1.0,94,0.01,,OVC030,0.01,VWS V14.01,2013-02-26 06:23:00,
2013-02-26 01:28:00,48.8,47.2,30.10,ENE,72,0.0,0.0,94,0.01,,OVC030,0.01,VWS V14.01,2013-02-26 06:28:00,
2013-02-26 01:33:00,48.8,47.4,30.10,ENE,71,0.0,0.0,95,0.01,,OVC030,0.01,VWS V14.01,2013-02-26 06:33:00,
2013-02-26 01:38:00,48.9,47.5,30.10,ENE,71,0.0,0.0,95,0.02,,OVC030,0.02,VWS V14.01,2013-02-26 06:38:00,
2013-02-26 01:43:00,49.1,47.7,30.10,ENE,71,0.0,0.0,95,0.02,,OVC030,0.02,VWS V14.01,2013-02-26 06:43:00,
2013-02-26 01:48:00,49.1,47.7,30.09,ENE,63,0.0,0.0,95,0.03,,OVC030,0.03,VWS V14.01,2013-02-26 06:48:00,
2013-02-26 01:53:00,49.2,47.8,30.09,ENE,63,0.0,0.0,95,0.03,,OVC030,0.03,VWS V14.01,2013-02-26 06:53:00,
2013-02-26 01:58:00,49.2,47.8,30.09,ENE,63,0.0,0.0,95,0.03,,OVC030,0.03,VWS V14.01,2013-02-26 06:58:00,
2013-02-26 02:03:00,49.4,48.3,30.08,SE,126,0.0,1.0,96,0.04,,-RA,0.04,VWS V14.01,2013-02-26 07:03:00,
2013-02-26 02:08:00,49.5,48.4,30.08,ESE,120,0.0,0.0,96,0.04,,-RA,0.04,VWS V14.01,2013-02-26 07:08:00,
2013-02-26 02:13:00,49.6,48.5,30.08,NNW,346,0.0,0.0,96,0.05,,-RA,0.05,VWS V14.01,2013-02-26 07:13:00,
2013-02-26 02:18:00,49.9,48.8,30.07,NNW,346,0.0,0.0,96,0.04,,-RA,0.05,VWS V14.01,2013-02-26 07:18:00,
2013-02-26 02:23:00,50.1,49.0,30.07,ENE,69,0.0,0.0,96,0.04,,-RA,0.05,VWS V14.01,2013-02-26 07:23:00,
2013-02-26 02:28:00,50.2,49.1,30.07,North,10,0.0,0.0,96,0.04,,-RA,0.05,VWS V14.01,2013-02-26 07:28:00,
2013-02-26 02:33:00,50.4,49.3,30.05,East,87,0.0,2.0,96,0.04,,-RA,0.05,VWS V14.01,2013-02-26 07:33:00,
2013-02-26 02:38:00,50.5,49.7,30.05,WNW,298,0.0,0.0,97,0.03,,-RA,0.05,VWS V14.01,2013-02-26 07:38:00,
2013-02-26 02:43:00,50.8,50.0,30.05,North,357,0.0,0.0,97,0.03,,-RA,0.05,VWS V14.01,2013-02-26 07:43:00,
2013-02-26 02:48:00,51.0,50.2,30.05,North,358,0.0,0.0,97,0.02,,-RA,0.05,VWS V14.01,2013-02-26 07:48:00,
2013-02-26 02:53:00,51.1,50.3,30.05,ENE,76,0.0,0.0,97,0.03,,-RA,0.06,VWS V14.01,2013-02-26 07:53:00,
2013-02-26 02:58:00,51.3,50.5,30.05,NNW,343,0.0,0.0,97,0.03,,-RA,0.06,VWS V14.01,2013-02-26 07:58:00,
2013-02-26 03:03:00,51.4,50.6,30.04,North,356,0.0,0.0,97,0.02,,-RA,0.06,VWS V14.01,2013-02-26 08:03:00,
2013-02-26 03:08:00,51.6,50.8,30.04,WNW,295,0.0,0.0,97,0.02,,-RA,0.06,VWS V14.01,2013-02-26 08:08:00,
2013-02-26 03:13:00,51.7,50.9,30.04,ESE,104,0.0,0.0,97,0.02,,-RA,0.07,VWS V14.01,2013-02-26 08:13:00,
2013-02-26 03:18:00,51.9,51.1,30.02,NNW,333,0.0,0.0,97,0.02,,-RA,0.07,VWS V14.01,2013-02-26 08:18:00,
2013-02-26 03:23:00,52.0,51.2,30.02,North,0,1.0,1.0,97,0.02,,-RA,0.07,VWS V14.01,2013-02-26 08:23:00,
2013-02-26 03:28:00,52.3,51.5,30.02,North,0,0.0,0.0,97,0.03,,-RA,0.08,VWS V14.01,2013-02-26 08:28:00,
2013-02-26 03:33:00,52.5,51.7,30.02,North,0,0.0,0.0,97,0.03,,-RA,0.08,VWS V14.01,2013-02-26 08:33:00,
2013-02-26 03:38:00,52.6,51.8,30.02,North,0,0.0,0.0,97,0.04,,-RA,0.09,VWS V14.01,2013-02-26 08:38:00,
2013-02-26 03:43:00,52.8,52.2,30.02,North,0,0.0,0.0,98,0.05,,-RA,0.10,VWS V14.01,2013-02-26 08:43:00,
2013-02-26 03:48:00,52.9,52.3,30.02,North,0,0.0,0.0,98,0.06,,-RA,0.11,VWS V14.01,2013-02-26 08:48:00,
2013-02-26 03:53:00,53.1,52.5,30.02,North,0,0.0,0.0,98,0.10,,-RA,0.16,VWS V14.01,2013-02-26 08:53:00,
2013-02-26 03:58:00,53.1,52.5,30.02,North,0,0.0,0.0,98,0.12,,-RA,0.18,VWS V14.01,2013-02-26 08:58:00,
2013-02-26 04:03:00,53.2,52.7,30.00,North,358,0.0,0.0,98,0.13,,RA,0.19,VWS V14.01,2013-02-26 09:03:00,
2013-02-26 04:08:00,53.2,52.7,30.00,North,358,0.0,0.0,98,0.14,,RA,0.20,VWS V14.01,2013-02-26 09:08:00,
2013-02-26 04:13:00,53.3,52.8,30.00,NNW,338,0.0,0.0,98,0.22,,RA,0.28,VWS V14.01,2013-02-26 09:13:00,
2013-02-26 04:18:00,53.5,53.0,30.00,North,358,0.0,1.0,98,0.23,,RA,0.30,VWS V14.01,2013-02-26 09:18:00,
2013-02-26 04:23:00,53.5,53.0,30.00,North,352,0.0,1.0,98,0.25,,RA,0.32,VWS V14.01,2013-02-26 09:23:00,
2013-02-26 04:28:00,53.6,53.0,30.00,North,358,0.0,0.0,98,0.25,,RA,0.33,VWS V14.01,2013-02-26 09:28:00,
2013-02-26 04:33:00,53.8,53.2,29.98,North,358,0.0,0.0,98,0.25,,RA,0.33,VWS V14.01,2013-02-26 09:33:00,
2013-02-26 04:38:00,53.9,53.3,29.98,NNW,334,0.0,1.0,98,0.25,,RA,0.34,VWS V14.01,2013-02-26 09:38:00,
2013-02-26 04:43:00,53.9,53.3,29.98,North,6,0.0,0.0,98,0.26,,RA,0.35,VWS V14.01,2013-02-26 09:43:00,
2013-02-26 04:48:00,54.1,53.5,29.97,East,97,0.0,3.0,98,0.25,,RA,0.36,VWS V14.01,2013-02-26 09:48:00,
2013-02-26 04:53:00,54.2,53.7,29.97,NE,56,0.0,0.0,98,0.21,,RA,0.37,VWS V14.01,2013-02-26 09:53:00,
2013-02-26 04:58:00,54.2,53.7,29.97,NE,41,0.0,0.0,98,0.21,,RA,0.38,VWS V14.01,2013-02-26 09:58:00,
2013-02-26 05:03:00,54.4,53.8,29.96,North,358,1.0,2.0,98,0.19,,-RA,0.38,VWS V14.01,2013-02-26 10:03:00,
2013-02-26 05:08:00,54.4,53.8,29.96,NE,40,0.0,0.0,98,0.18,,-RA,0.38,VWS V14.01,2013-02-26 10:08:00,
2013-02-26 05:13:00,54.5,54.0,29.96,NNE,15,0.0,0.0,98,0.10,,-RA,0.38,VWS V14.01,2013-02-26 10:13:00,
2013-02-26 05:18:00,54.5,54.0,29.96,ESE,120,0.0,0.0,98,0.08,,-RA,0.38,VWS V14.01,2013-02-26 10:18:00,
2013-02-26 05:23:00,54.7,54.2,29.96,North,358,0.0,0.0,98,0.07,,-RA,0.38,VWS V14.01,2013-02-26 10:23:00,
2013-02-26 05:28:00,54.7,54.2,29.96,NE,51,0.0,0.0,98,0.07,,-RA,0.40,VWS V14.01,2013-02-26 10:28:00,
2013-02-26 05:33:00,54.7,54.2,29.95,North,349,0.0,0.0,98,0.07,,-RA,0.40,VWS V14.01,2013-02-26 10:33:00,
2013-02-26 05:38:00,54.5,54.0,29.95,ENE,71,0.0,0.0,98,0.06,,-RA,0.40,VWS V14.01,2013-02-26 10:38:00,
2013-02-26 05:43:00,54.7,54.2,29.95,NNW,347,0.0,0.0,98,0.05,,-RA,0.40,VWS V14.01,2013-02-26 10:43:00,
2013-02-26 05:48:00,54.8,54.2,29.94,NE,37,0.0,0.0,98,0.04,,-RA,0.40,VWS V14.01,2013-02-26 10:48:00,
2013-02-26 05:53:00,55.1,54.5,29.94,North,0,0.0,0.0,98,0.03,,-RA,0.40,VWS V14.01,2013-02-26 10:53:00,
2013-02-26 05:58:00,55.1,54.5,29.94,ENE,64,0.0,0.0,98,0.03,,-RA,0.40,VWS V14.01,2013-02-26 10:58:00,
2013-02-26 06:03:00,55.3,54.8,29.94,North,3,0.0,2.0,98,0.02,,-RA,0.40,VWS V14.01,2013-02-26 11:03:00,
2013-02-26 06:08:00,55.4,54.8,29.94,NE,47,0.0,0.0,98,0.02,,-RA,0.40,VWS V14.01,2013-02-26 11:08:00,
2013-02-26 06:13:00,55.6,55.0,29.94,NE,36,0.0,0.0,98,0.02,,-RA,0.40,VWS V14.01,2013-02-26 11:13:00,
2013-02-26 06:18:00,55.9,55.3,29.93,NNE,15,0.0,0.0,98,0.02,,-RA,0.40,VWS V14.01,2013-02-26 11:18:00,
2013-02-26 06:23:00,56.5,55.9,29.93,NNE,29,0.0,0.0,98,0.02,,-RA,0.40,VWS V14.01,2013-02-26 11:23:00,
2013-02-26 06:28:00,56.7,56.1,29.93,NE,41,0.0,0.0,98,0.00,,-RA,0.40,VWS V14.01,2013-02-26 11:28:00,
2013-02-26 06:33:00,57.0,56.4,29.92,NE,49,0.0,0.0,98,0.00,,-RA,0.40,VWS V14.01,2013-02-26 11:33:00,
2013-02-26 06:38:00,57.3,56.7,29.92,ENE,63,0.0,0.0,98,0.00,,-RA,0.40,VWS V14.01,2013-02-26 11:38:00,
2013-02-26 06:43:00,57.6,57.0,29.92,NE,41,0.0,0.0,98,0.00,,-RA,0.40,VWS V14.01,2013-02-26 11:43:00,
2013-02-26 06:48:00,58.1,57.5,29.91,East,84,0.0,1.0,98,0.00,,-RA,0.40,VWS V14.01,2013-02-26 11:48:00,
2013-02-26 06:53:00,58.6,58.0,29.91,East,82,0.0,0.0,98,0.01,,-RA,0.41,VWS V14.01,2013-02-26 11:53:00,
2013-02-26 06:58:00,59.2,58.6,29.91,East,86,0.0,0.0,98,0.01,,-RA,0.41,VWS V14.01,2013-02-26 11:58:00,
2013-02-26 07:03:00,59.5,58.9,29.91,ENE,62,0.0,0.0,98,0.02,,-RA,0.42,VWS V14.01,2013-02-26 12:03:00,
2013-02-26 07:08:00,59.9,59.3,29.91,East,82,0.0,0.0,98,0.02,,-RA,0.42,VWS V14.01,2013-02-26 12:08:00,
2013-02-26 07:13:00,60.4,59.8,29.91,ENE,75,0.0,0.0,98,0.02,,-RA,0.42,VWS V14.01,2013-02-26 12:13:00,
2013-02-26 07:18:00,60.7,60.1,29.90,NE,53,0.0,1.0,98,0.02,,-RA,0.42,VWS V14.01,2013-02-26 12:18:00,
2013-02-26 07:23:00,61.3,60.7,29.90,SE,141,0.0,3.0,98,0.02,,-RA,0.42,VWS V14.01,2013-02-26 12:23:00,
2013-02-26 07:28:00,61.6,61.0,29.90,ENE,66,1.0,1.0,98,0.02,,-RA,0.42,VWS V14.01,2013-02-26 12:28:00,
2013-02-26 07:33:00,62.0,61.4,29.90,ENE,77,5.0,7.0,98,0.02,,-RA,0.42,VWS V14.01,2013-02-26 12:33:00,
2013-02-26 07:38:00,62.1,61.5,29.90,North,11,0.0,0.0,98,0.02,,-RA,0.42,VWS V14.01,2013-02-26 12:38:00,
2013-02-26 07:43:00,62.1,61.5,29.90,ENE,68,1.0,2.0,98,0.02,,-RA,0.42,VWS V14.01,2013-02-26 12:43:00,
2013-02-26 07:48:00,62.3,61.7,29.89,ESE,115,0.0,0.0,98,0.03,,-RA,0.43,VWS V14.01,2013-02-26 12:48:00,
2013-02-26 07:53:00,62.3,61.7,29.89,ENE,58,3.0,4.0,98,0.03,,-RA,0.44,VWS V14.01,2013-02-26 12:53:00,
2013-02-26 07:58:00,62.1,61.5,29.89,East,83,2.0,3.0,98,0.04,,-RA,0.45,VWS V14.01,2013-02-26 12:58:00,
2013-02-26 08:03:00,62.0,61.4,29.89,ENE,68,0.0,1.0,98,0.07,,RA,0.49,VWS V14.01,2013-02-26 13:03:00,
2013-02-26 08:09:00,62.0,61.4,29.89,NNE,19,3.0,7.0,98,0.15,,RA,0.57,VWS V14.01,2013-02-26 13:09:00,
2013-02-26 08:14:00,62.0,61.4,29.89,ENE,70,3.0,4.0,98,0.15,,RA,0.57,VWS V14.01,2013-02-26 13:14:00,
2013-02-26 08:19:00,62.1,61.5,29.89,SSE,154,2.0,6.0,98,0.17,,RA,0.59,VWS V14.01,2013-02-26 13:19:00,
2013-02-26 08:24:00,62.1,61.5,29.89,SE,140,0.0,3.0,98,0.18,,RA,0.60,VWS V14.01,2013-02-26 13:24:00,
2013-02-26 08:29:00,62.4,61.8,29.89,ENE,65,3.0,7.0,98,0.19,,RA,0.61,VWS V14.01,2013-02-26 13:29:00,
2013-02-26 08:34:00,63.1,62.5,29.90,SE,126,2.0,5.0,98,0.21,,-RA,0.63,VWS V14.01,2013-02-26 13:34:00,
2013-02-26 08:39:00,63.7,63.1,29.90,ENE,77,0.0,3.0,98,0.22,,-RA,0.64,VWS V14.01,2013-02-26 13:39:00,
2013-02-26 08:44:00,63.9,63.3,29.90,SE,139,2.0,3.0,98,0.23,,-RA,0.65,VWS V14.01,2013-02-26 13:44:00,
2013-02-26 08:49:00,64.2,63.6,29.91,East,101,0.0,3.0,98,0.24,,-RA,0.67,VWS V14.01,2013-02-26 13:49:00,
2013-02-26 08:54:00,64.3,63.7,29.91,NE,49,1.0,3.0,98,0.24,,-RA,0.68,VWS V14.01,2013-02-26 13:54:00,
2013-02-26 08:59:00,64.5,63.9,29.91,ENE,71,0.0,1.0,98,0.24,,-RA,0.69,VWS V14.01,2013-02-26 13:59:00,
2013-02-26 09:04:00,64.8,64.2,29.88,NNE,18,0.0,1.0,98,0.22,,,0.70,VWS V14.01,2013-02-26 14:04:00,
2013-02-26 09:09:00,65.0,64.4,29.88,NE,56,0.0,4.0,98,0.14,,,0.71,VWS V14.01,2013-02-26 14:09:00,
2013-02-26 09:14:00,65.2,64.6,29.88,SSW,204,1.0,2.0,98,0.14,,,0.71,VWS V14.01,2013-02-26 14:14:00,
2013-02-26 09:19:00,65.0,64.4,29.87,ESE,107,3.0,9.0,98,0.14,,,0.73,VWS V14.01,2013-02-26 14:19:00,
2013-02-26 09:24:00,64.8,64.2,29.87,SSW,213,2.0,6.0,98,0.15,,,0.74,VWS V14.01,2013-02-26 14:24:00,
2013-02-26 09:29:00,64.7,63.8,29.87,WSW,240,0.0,0.0,97,0.16,,,0.77,VWS V14.01,2013-02-26 14:29:00,
2013-02-26 09:34:00,64.5,63.6,29.89,WSW,246,0.0,0.0,97,0.16,,,0.78,VWS V14.01,2013-02-26 14:34:00,
2013-02-26 09:39:00,64.7,64.1,29.89,East,82,3.0,10.0,98,0.17,,,0.80,VWS V14.01,2013-02-26 14:39:00,
2013-02-26 09:44:00,65.8,65.2,29.89,ESE,115,3.0,4.0,98,0.16,,,0.81,VWS V14.01,2013-02-26 14:44:00,
2013-02-26 09:49:00,66.1,65.5,29.86,ENE,70,1.0,9.0,98,0.15,,,0.81,VWS V14.01,2013-02-26 14:49:00,
2013-02-26 09:54:00,66.3,65.7,29.86,ESE,110,2.0,7.0,98,0.19,,,0.87,VWS V14.01,2013-02-26 14:54:00,
2013-02-26 09:59:00,66.4,65.8,29.86,WSW,255,2.0,3.0,98,0.22,,,0.91,VWS V14.01,2013-02-26 14:59:00,
2013-02-26 10:04:00,66.1,65.5,29.87,South,190,1.0,1.0,98,0.23,, +RA,0.93,VWS V14.01,2013-02-26 15:04:00,
2013-02-26 10:09:00,66.1,65.2,29.87,East,94,0.0,0.0,97,0.32,, +RA,1.03,VWS V14.01,2013-02-26 15:09:00,
2013-02-26 10:14:00,66.1,65.5,29.87,East,98,0.0,1.0,98,0.46,, +RA,1.17,VWS V14.01,2013-02-26 15:14:00,
2013-02-26 10:20:00,66.1,65.5,29.87,East,98,0.0,0.0,98,0.57,, +RA,1.30,VWS V14.01,2013-02-26 15:20:00,
2013-02-26 10:26:00,66.1,65.5,29.87,East,82,0.0,0.0,98,0.67,, +RA,1.40,VWS V14.01,2013-02-26 15:26:00,
2013-02-26 10:31:00,66.4,65.8,29.87,WSW,255,1.0,3.0,98,0.68,, +RA,1.45,VWS V14.01,2013-02-26 15:31:00,
2013-02-26 10:36:00,66.4,65.8,29.85,SSE,149,0.0,9.0,98,0.67,, +RA,1.46,VWS V14.01,2013-02-26 15:36:00,
2013-02-26 10:41:00,66.6,66.0,29.85,East,82,0.0,5.0,98,0.67,, +RA,1.47,VWS V14.01,2013-02-26 15:41:00,
2013-02-26 10:46:00,66.4,65.5,29.85,SE,133,0.0,1.0,97,0.67,, +RA,1.48,VWS V14.01,2013-02-26 15:46:00,
2013-02-26 10:51:00,66.6,66.0,29.88,West,271,0.0,2.0,98,0.67,, +RA,1.48,VWS V14.01,2013-02-26 15:51:00,
2013-02-26 10:56:00,66.8,65.9,29.88,ENE,58,2.0,3.0,97,0.64,, +RA,1.53,VWS V14.01,2013-02-26 15:56:00,
2013-02-26 11:01:00,66.8,65.9,29.87,SW,224,6.0,9.0,97,0.67,, +RA,1.59,VWS V14.01,2013-02-26 16:01:00,
2013-02-26 11:07:00,67.1,66.2,29.87,West,278,2.0,2.0,97,0.69,, +RA,1.62,VWS V14.01,2013-02-26 16:07:00,
2013-02-26 11:12:00,67.1,66.2,29.87,NE,41,0.0,1.0,97,0.59,, +RA,1.65,VWS V14.01,2013-02-26 16:12:00,
2013-02-26 11:17:00,66.9,66.0,29.86,ENE,65,0.0,8.0,97,0.43,, +RA,1.65,VWS V14.01,2013-02-26 16:17:00,
2013-02-26 11:22:00,66.8,65.9,29.86,SE,146,2.0,12.0,97,0.32,, +RA,1.65,VWS V14.01,2013-02-26 16:22:00,
2013-02-26 11:27:00,66.8,65.9,29.86,SE,127,4.0,10.0,97,0.25,, +RA,1.65,VWS V14.01,2013-02-26 16:27:00,
2013-02-26 11:32:00,67.1,65.9,29.84,SE,136,0.0,7.0,96,0.20,,-RA,1.65,VWS V14.01,2013-02-26 16:32:00,
2013-02-26 11:37:00,67.6,66.4,29.84,WNW,283,3.0,5.0,96,0.19,,-RA,1.65,VWS V14.01,2013-02-26 16:37:00,
2013-02-26 11:42:00,67.6,66.4,29.84,ESE,112,0.0,3.0,96,0.18,,-RA,1.65,VWS V14.01,2013-02-26 16:42:00,
2013-02-26 11:47:00,67.6,66.1,29.83,SE,137,1.0,4.0,95,0.17,,-RA,1.65,VWS V14.01,2013-02-26 16:47:00,
2013-02-26 11:52:00,67.6,65.8,29.83,East,94,2.0,9.0,94,0.17,,-RA,1.65,VWS V14.01,2013-02-26 16:52:00,
2013-02-26 11:57:00,67.9,65.8,29.83,North,353,0.0,1.0,93,0.12,,-RA,1.65,VWS V14.01,2013-02-26 16:57:00,
2013-02-26 12:02:00,68.4,66.0,29.82,NE,38,1.0,11.0,92,0.06,,BKN250,1.65,VWS V14.01,2013-02-26 17:02:00,
2013-02-26 12:07:00,69.3,66.2,29.82,ENE,75,4.0,12.0,90,0.04,,BKN250,1.65,VWS V14.01,2013-02-26 17:07:00,
2013-02-26 12:12:00,69.1,65.4,29.82,SW,224,4.0,7.0,88,0.00,,BKN250,1.65,VWS V14.01,2013-02-26 17:12:00,
2013-02-26 12:17:00,69.9,66.2,29.80,NNW,330,1.0,9.0,88,0.00,,BKN250,1.65,VWS V14.01,2013-02-26 17:17:00,
2013-02-26 12:22:00,70.6,66.2,29.80,ESE,111,1.0,3.0,86,0.00,,BKN250,1.65,VWS V14.01,2013-02-26 17:22:00,
2013-02-26 12:27:00,71.3,66.2,29.80,NNW,329,1.0,7.0,84,0.00,,BKN250,1.65,VWS V14.01,2013-02-26 17:27:00,
2013-02-26 12:32:00,71.6,65.8,29.78,NE,49,7.0,19.0,82,0.00,,BKN250,1.65,VWS V14.01,2013-02-26 17:32:00,
2013-02-26 12:37:00,71.6,65.5,29.78,WNW,302,1.0,2.0,81,0.00,,BKN250,1.65,VWS V14.01,2013-02-26 17:37:00,
2013-02-26 12:42:00,71.5,65.4,29.78,NW,321,0.0,2.0,81,0.00,,BKN250,1.65,VWS V14.01,2013-02-26 17:42:00,
2013-02-26 12:48:00,71.3,65.5,29.78,ENE,60,0.0,5.0,82,0.00,,BKN250,1.65,VWS V14.01,2013-02-26 17:48:00,
2013-02-26 12:53:00,71.5,65.7,29.78,SE,138,6.0,7.0,82,0.00,,BKN250,1.65,VWS V14.01,2013-02-26 17:53:00,
2013-02-26 12:58:00,71.6,65.8,29.78,WSW,237,1.0,5.0,82,0.00,,BKN250,1.65,VWS V14.01,2013-02-26 17:58:00,
2013-02-26 13:03:00,71.8,65.7,29.76,NNW,347,1.0,3.0,81,0.00,,BKN,1.65,VWS V14.01,2013-02-26 18:03:00,
2013-02-26 13:08:00,72.3,66.2,29.76,SSW,209,2.0,6.0,81,0.00,,BKN,1.65,VWS V14.01,2013-02-26 18:08:00,
2013-02-26 13:13:00,72.5,65.3,29.76,NW,307,5.0,5.0,78,0.00,,BKN,1.65,VWS V14.01,2013-02-26 18:13:00,
2013-02-26 13:18:00,72.7,65.4,29.75,SW,233,14.0,14.0,78,0.00,,BKN,1.65,VWS V14.01,2013-02-26 18:18:00,
2013-02-26 13:23:00,72.3,65.1,29.75,WSW,243,5.0,7.0,78,0.00,,BKN,1.65,VWS V14.01,2013-02-26 18:23:00,
2013-02-26 13:28:00,72.3,64.7,29.75,WNW,292,2.0,4.0,77,0.00,,BKN,1.65,VWS V14.01,2013-02-26 18:28:00,
2013-02-26 13:33:00,72.5,64.9,29.74,ESE,106,0.0,10.0,77,0.00,,BKN,1.65,VWS V14.01,2013-02-26 18:33:00,
2013-02-26 13:38:00,72.8,65.6,29.74,NW,316,0.0,4.0,78,0.00,,BKN,1.65,VWS V14.01,2013-02-26 18:38:00,
2013-02-26 13:44:00,73.0,65.4,29.74,North,358,4.0,11.0,77,0.00,,BKN,1.65,VWS V14.01,2013-02-26 18:44:00,
2013-02-26 13:49:00,73.2,65.6,29.73,West,274,0.0,6.0,77,0.00,,BKN,1.65,VWS V14.01,2013-02-26 18:49:00,
2013-02-26 13:54:00,73.2,65.6,29.73,North,356,2.0,6.0,77,0.00,,BKN,1.65,VWS V14.01,2013-02-26 18:54:00,
2013-02-26 13:59:00,73.2,65.9,29.73,ENE,70,2.0,4.0,78,0.00,,BKN,1.65,VWS V14.01,2013-02-26 18:59:00,
2013-02-26 14:04:00,73.0,66.1,29.73,NE,37,0.0,6.0,79,0.00,,OVC200,1.65,VWS V14.01,2013-02-26 19:04:00,
2013-02-26 14:09:00,73.0,66.5,29.73,ENE,75,7.0,15.0,80,0.00,,OVC200,1.65,VWS V14.01,2013-02-26 19:09:00,
2013-02-26 14:14:00,73.0,66.5,29.73,ESE,107,0.0,7.0,80,0.00,,OVC200,1.65,VWS V14.01,2013-02-26 19:14:00,
2013-02-26 14:19:00,72.5,65.6,29.73,SW,221,3.0,7.0,79,0.00,,OVC200,1.65,VWS V14.01,2013-02-26 19:19:00,
2013-02-26 14:24:00,72.3,65.4,29.73,North,2,4.0,6.0,79,0.00,,OVC200,1.65,VWS V14.01,2013-02-26 19:24:00,
2013-02-26 14:29:00,72.3,65.4,29.73,North,0,1.0,6.0,79,0.00,,OVC200,1.65,VWS V14.01,2013-02-26 19:29:00,
2013-02-26 14:34:00,72.3,65.4,29.74,NW,319,3.0,16.0,79,0.00,,OVC200,1.65,VWS V14.01,2013-02-26 19:34:00,
2013-02-26 14:39:00,72.0,65.1,29.74,North,9,10.0,10.0,79,0.00,,OVC200,1.65,VWS V14.01,2013-02-26 19:39:00,
2013-02-26 14:44:00,71.6,64.8,29.74,WNW,300,3.0,17.0,79,0.00,,OVC200,1.65,VWS V14.01,2013-02-26 19:44:00,
2013-02-26 14:49:00,71.6,64.8,29.74,South,183,3.0,8.0,79,0.00,,OVC200,1.65,VWS V14.01,2013-02-26 19:49:00,
2013-02-26 14:54:00,71.3,64.1,29.74,WSW,240,2.0,13.0,78,0.00,,OVC200,1.65,VWS V14.01,2013-02-26 19:54:00,
2013-02-26 14:59:00,70.9,64.4,29.74,NW,318,1.0,6.0,80,0.00,,OVC200,1.65,VWS V14.01,2013-02-26 19:59:00,
2013-02-26 15:04:00,71.1,64.3,29.74,SW,229,1.0,4.0,79,0.00,,BKN200,1.65,VWS V14.01,2013-02-26 20:04:00,
2013-02-26 15:10:00,70.6,64.1,29.74,North,358,0.0,5.0,80,0.00,,BKN200,1.65,VWS V14.01,2013-02-26 20:10:00,
2013-02-26 15:15:00,70.4,64.3,29.74,SE,128,1.0,5.0,81,0.00,,BKN200,1.65,VWS V14.01,2013-02-26 20:15:00,
2013-02-26 15:20:00,70.3,64.6,29.74,WSW,244,2.0,10.0,82,0.00,,BKN200,1.65,VWS V14.01,2013-02-26 20:20:00,
2013-02-26 15:25:00,69.9,64.2,29.74,SW,223,1.0,5.0,82,0.00,,BKN200,1.65,VWS V14.01,2013-02-26 20:25:00,
2013-02-26 15:30:00,69.9,64.2,29.74,NW,321,2.0,11.0,82,0.00,,BKN200,1.65,VWS V14.01,2013-02-26 20:30:00,
2013-02-26 15:35:00,69.8,64.1,29.74,WNW,293,0.0,3.0,82,0.00,,OVC200,1.65,VWS V14.01,2013-02-26 20:35:00,
2013-02-26 15:40:00,69.9,64.5,29.74,SW,229,0.0,0.0,83,0.00,,OVC200,1.65,VWS V14.01,2013-02-26 20:40:00,
2013-02-26 15:45:00,69.9,64.5,29.74,South,169,0.0,0.0,83,0.00,,OVC200,1.65,VWS V14.01,2013-02-26 20:45:00,
2013-02-26 15:50:00,69.6,63.9,29.74,WSW,245,2.0,3.0,82,0.00,,OVC200,1.65,VWS V14.01,2013-02-26 20:50:00,
2013-02-26 15:55:00,69.6,64.2,29.74,East,79,0.0,0.0,83,0.00,,OVC200,1.65,VWS V14.01,2013-02-26 20:55:00,
2013-02-26 16:00:00,69.4,64.0,29.74,NW,321,3.0,3.0,83,0.00,,BKN200,1.65,VWS V14.01,2013-02-26 21:00:00,
2013-02-26 16:06:00,69.4,64.0,29.75,WSW,252,0.0,1.0,83,0.00,,BKN200,1.65,VWS V14.01,2013-02-26 21:06:00,
2013-02-26 16:11:00,69.3,64.3,29.75,SSW,205,0.0,3.0,84,0.00,,BKN200,1.65,VWS V14.01,2013-02-26 21:11:00,
2013-02-26 16:16:00,69.1,64.1,29.75,WSW,247,4.0,4.0,84,0.00,,BKN200,1.65,VWS V14.01,2013-02-26 21:16:00,
2013-02-26 16:21:00,68.9,63.9,29.74,SW,236,3.0,4.0,84,0.00,,BKN200,1.65,VWS V14.01,2013-02-26 21:21:00,
2013-02-26 16:26:00,69.3,64.3,29.74,ESE,105,2.0,2.0,84,0.00,,BKN200,1.65,VWS V14.01,2013-02-26 21:26:00,
2013-02-26 16:31:00,69.9,64.2,29.74,NE,51,0.0,0.0,82,0.00,,BKN150,1.65,VWS V14.01,2013-02-26 21:31:00,
2013-02-26 16:36:00,69.9,63.5,29.74,West,279,3.0,6.0,80,0.00,,BKN150,1.65,VWS V14.01,2013-02-26 21:36:00,
2013-02-26 16:41:00,69.8,63.4,29.74,WSW,253,1.0,6.0,80,0.00,,BKN150,1.65,VWS V14.01,2013-02-26 21:41:00,
2013-02-26 16:46:00,69.6,63.5,29.74,South,182,0.0,4.0,81,0.00,,BKN150,1.65,VWS V14.01,2013-02-26 21:46:00,
2013-02-26 16:51:00,69.8,63.4,29.75,South,188,0.0,0.0,80,0.00,,BKN150,1.65,VWS V14.01,2013-02-26 21:51:00,
2013-02-26 16:56:00,70.1,63.3,29.75,WSW,245,0.0,1.0,79,0.00,,BKN150,1.65,VWS V14.01,2013-02-26 21:56:00,
2013-02-26 17:01:00,70.3,63.5,29.75,WNW,293,1.0,1.0,79,0.00,,BKN200,1.65,VWS V14.01,2013-02-26 22:01:00,
2013-02-26 17:06:00,70.4,63.2,29.74,WNW,300,0.0,4.0,78,0.00,,BKN200,1.65,VWS V14.01,2013-02-26 22:06:00,
2013-02-26 17:11:00,70.3,62.8,29.74,SW,218,0.0,4.0,77,0.00,,BKN200,1.65,VWS V14.01,2013-02-26 22:11:00,
2013-02-26 17:16:00,70.3,62.4,29.74,NW,308,0.0,3.0,76,0.00,,BKN200,1.65,VWS V14.01,2013-02-26 22:16:00,
2013-02-26 17:21:00,70.3,62.4,29.74,WNW,296,0.0,0.0,76,0.00,,BKN200,1.65,VWS V14.01,2013-02-26 22:21:00,
2013-02-26 17:26:00,69.9,61.2,29.74,NNW,328,1.0,4.0,74,0.00,,BKN200,1.65,VWS V14.01,2013-02-26 22:26:00,
2013-02-26 17:32:00,69.4,61.1,29.74,WSW,244,0.0,3.0,75,0.00,,BKN200,1.65,VWS V14.01,2013-02-26 22:32:00,
2013-02-26 17:37:00,69.1,61.2,29.74,NNW,346,0.0,0.0,76,0.00,,BKN200,1.65,VWS V14.01,2013-02-26 22:37:00,
2013-02-26 17:42:00,68.8,60.9,29.74,West,276,0.0,0.0,76,0.00,,BKN200,1.65,VWS V14.01,2013-02-26 22:42:00,
2013-02-26 17:47:00,68.4,60.9,29.74,SSE,165,0.0,0.0,77,0.00,,BKN200,1.65,VWS V14.01,2013-02-26 22:47:00,
2013-02-26 17:52:00,68.3,60.8,29.74,ESE,107,0.0,0.0,77,0.00,,BKN200,1.65,VWS V14.01,2013-02-26 22:52:00,
2013-02-26 17:57:00,68.1,60.6,29.74,SE,127,4.0,4.0,77,0.00,,BKN200,1.65,VWS V14.01,2013-02-26 22:57:00,
2013-02-26 18:02:00,67.8,60.3,29.74,East,91,0.0,0.0,77,0.00,,SCT250,1.65,VWS V14.01,2013-02-26 23:02:00,
2013-02-26 18:07:00,67.6,60.1,29.74,East,98,0.0,0.0,77,0.00,,SCT250,1.65,VWS V14.01,2013-02-26 23:07:00,
2013-02-26 18:12:00,67.3,60.2,29.74,ESE,115,0.0,2.0,78,0.00,,SCT250,1.65,VWS V14.01,2013-02-26 23:12:00,
2013-02-26 18:17:00,66.9,60.2,29.75,ESE,103,0.0,0.0,79,0.00,,SCT250,1.65,VWS V14.01,2013-02-26 23:17:00,
2013-02-26 18:22:00,66.6,60.2,29.75,ESE,105,0.0,0.0,80,0.00,,SCT250,1.65,VWS V14.01,2013-02-26 23:22:00,
2013-02-26 18:27:00,66.3,60.3,29.75,ESE,110,0.0,2.0,81,0.00,,SCT250,1.65,VWS V14.01,2013-02-26 23:27:00,
2013-02-26 18:32:00,66.0,60.0,29.75,East,89,0.0,0.0,81,0.00,,SCT250,1.65,VWS V14.01,2013-02-26 23:32:00,
2013-02-26 18:38:00,65.6,59.6,29.75,SE,128,0.0,0.0,81,0.00,,SCT250,1.65,VWS V14.01,2013-02-26 23:38:00,
2013-02-26 18:43:00,65.3,59.3,29.75,SE,126,0.0,0.0,81,0.00,,SCT250,1.65,VWS V14.01,2013-02-26 23:43:00,
2013-02-26 18:48:00,65.0,59.0,29.75,ENE,58,0.0,0.0,81,0.00,,SCT250,1.65,VWS V14.01,2013-02-26 23:48:00,
2013-02-26 18:53:00,64.8,58.5,29.75,SW,219,0.0,0.0,80,0.00,,SCT250,1.65,VWS V14.01,2013-02-26 23:53:00,
2013-02-26 18:58:00,64.7,58.4,29.75,SE,138,0.0,0.0,80,0.00,,SCT250,1.65,VWS V14.01,2013-02-26 23:58:00,
2013-02-26 19:03:00,64.5,58.2,29.77,West,281,0.0,0.0,80,0.00,,BKN250,1.65,VWS V14.01,2013-02-27 00:03:00,
2013-02-26 19:08:00,64.3,58.0,29.77,WNW,282,0.0,0.0,80,0.00,,BKN250,1.65,VWS V14.01,2013-02-27 00:08:00,
2013-02-26 19:13:00,64.0,57.7,29.77,SE,130,0.0,0.0,80,0.00,,BKN250,1.65,VWS V14.01,2013-02-27 00:13:00,
2013-02-26 19:18:00,63.9,57.6,29.78,SSW,198,0.0,0.0,80,0.00,,BKN250,1.65,VWS V14.01,2013-02-27 00:18:00,
2013-02-26 19:23:00,63.9,57.6,29.78,SSW,198,0.0,0.0,80,0.00,,BKN250,1.65,VWS V14.01,2013-02-27 00:23:00,
2013-02-26 19:28:00,63.7,57.4,29.78,SSW,198,0.0,0.0,80,0.00,,BKN250,1.65,VWS V14.01,2013-02-27 00:28:00,
2013-02-26 19:33:00,63.5,57.2,29.79,SSW,198,0.0,0.0,80,0.00,,BKN250,1.65,VWS V14.01,2013-02-27 00:33:00,
2013-02-26 19:38:00,63.4,57.1,29.79,SSW,198,0.0,0.0,80,0.00,,BKN250,1.65,VWS V14.01,2013-02-27 00:38:00,
2013-02-26 19:43:00,63.2,56.9,29.79,SSW,198,0.0,0.0,80,0.00,,BKN250,1.65,VWS V14.01,2013-02-27 00:43:00,
2013-02-26 19:48:00,63.1,57.2,29.79,SSW,198,0.0,0.0,81,0.00,,BKN250,1.65,VWS V14.01,2013-02-27 00:48:00,
2013-02-26 19:53:00,62.9,57.0,29.79,SSW,198,0.0,0.0,81,0.00,,BKN250,1.65,VWS V14.01,2013-02-27 00:53:00,
2013-02-26 19:59:00,62.7,56.8,29.79,SSE,151,0.0,0.0,81,0.00,,BKN250,1.65,VWS V14.01,2013-02-27 00:59:00,
2013-02-26 20:04:00,62.7,56.8,29.80,West,269,0.0,0.0,81,0.00,,BKN250,1.65,VWS V14.01,2013-02-27 01:04:00,
2013-02-26 20:09:00,62.6,56.7,29.80,West,269,0.0,0.0,81,0.00,,BKN250,1.65,VWS V14.01,2013-02-27 01:09:00,
2013-02-26 20:14:00,62.6,56.3,29.80,West,269,0.0,0.0,80,0.00,,BKN250,1.65,VWS V14.01,2013-02-27 01:14:00,
2013-02-26 20:19:00,62.4,56.2,29.80,West,269,0.0,0.0,80,0.00,,BKN250,1.65,VWS V14.01,2013-02-27 01:19:00,
2013-02-26 20:24:00,62.3,56.4,29.80,West,270,0.0,0.0,81,0.00,,BKN250,1.65,VWS V14.01,2013-02-27 01:24:00,
2013-02-26 20:29:00,62.0,56.1,29.80,West,270,0.0,0.0,81,0.00,,BKN250,1.65,VWS V14.01,2013-02-27 01:29:00,
2013-02-26 20:34:00,61.8,55.9,29.80,West,270,0.0,0.0,81,0.00,,BKN250,1.65,VWS V14.01,2013-02-27 01:34:00,
2013-02-26 20:39:00,61.8,55.9,29.80,West,270,0.0,0.0,81,0.00,,BKN250,1.65,VWS V14.01,2013-02-27 01:39:00,
2013-02-26 20:44:00,61.6,55.7,29.80,West,270,0.0,0.0,81,0.00,,BKN250,1.65,VWS V14.01,2013-02-27 01:44:00,
2013-02-26 20:50:00,61.6,55.7,29.81,West,270,0.0,0.0,81,0.00,,BKN250,1.65,VWS V14.01,2013-02-27 01:50:00,
2013-02-26 20:55:00,61.6,55.4,29.81,West,264,0.0,0.0,80,0.00,,BKN250,1.65,VWS V14.01,2013-02-27 01:55:00,
2013-02-26 21:00:00,61.6,55.0,29.81,West,264,0.0,0.0,79,0.00,,BKN250,1.65,VWS V14.01,2013-02-27 02:00:00,
2013-02-26 21:05:00,61.6,55.0,29.81,West,264,0.0,0.0,79,0.00,,BKN200,1.65,VWS V14.01,2013-02-27 02:05:00,
2013-02-26 21:10:00,61.6,54.7,29.81,West,264,0.0,0.0,78,0.00,,BKN200,1.65,VWS V14.01,2013-02-27 02:10:00,
2013-02-26 21:15:00,61.6,54.7,29.81,West,264,0.0,0.0,78,0.00,,BKN200,1.65,VWS V14.01,2013-02-27 02:15:00,
2013-02-26 21:21:00,61.5,54.6,29.82,West,264,0.0,0.0,78,0.00,,BKN200,1.65,VWS V14.01,2013-02-27 02:21:00,
2013-02-26 21:26:00,61.5,54.6,29.82,West,264,0.0,0.0,78,0.00,,BKN200,1.65,VWS V14.01,2013-02-27 02:26:00,
2013-02-26 21:31:00,61.3,54.0,29.82,West,264,0.0,0.0,77,0.00,,BKN200,1.65,VWS V14.01,2013-02-27 02:31:00,
2013-02-26 21:36:00,61.3,54.0,29.82,West,266,0.0,0.0,77,0.00,,BKN200,1.65,VWS V14.01,2013-02-27 02:36:00,
2013-02-26 21:41:00,61.5,53.9,29.82,West,267,0.0,0.0,76,0.00,,BKN200,1.65,VWS V14.01,2013-02-27 02:41:00,
2013-02-26 21:46:00,61.5,53.5,29.82,WNW,293,0.0,1.0,75,0.00,,BKN200,1.65,VWS V14.01,2013-02-27 02:46:00,
2013-02-26 21:51:00,61.6,53.2,29.83,WNW,297,0.0,1.0,74,0.00,,BKN200,1.65,VWS V14.01,2013-02-27 02:51:00,
2013-02-26 21:56:00,61.8,53.1,29.83,ESE,119,0.0,2.0,73,0.00,,BKN200,1.65,VWS V14.01,2013-02-27 02:56:00,
2013-02-26 22:01:00,61.8,53.1,29.83,SSW,205,0.0,0.0,73,0.00,,BKN200,1.65,VWS V14.01,2013-02-27 03:01:00,
2013-02-26 22:06:00,62.0,52.9,29.84,SSW,194,0.0,1.0,72,0.00,,BKN200,1.65,VWS V14.01,2013-02-27 03:06:00,
2013-02-26 22:11:00,62.0,52.9,29.84,NW,306,0.0,0.0,72,0.00,,BKN200,1.65,VWS V14.01,2013-02-27 03:11:00,
2013-02-26 22:16:00,62.0,52.5,29.84,SW,224,0.0,1.0,71,0.00,,BKN200,1.65,VWS V14.01,2013-02-27 03:16:00,
2013-02-26 22:22:00,62.0,52.5,29.84,NW,317,0.0,0.0,71,0.00,,BKN200,1.65,VWS V14.01,2013-02-27 03:22:00,
2013-02-26 22:27:00,62.0,52.1,29.84,WSW,251,0.0,0.0,70,0.00,,BKN200,1.65,VWS V14.01,2013-02-27 03:27:00,
2013-02-26 22:32:00,62.0,52.1,29.84,SSW,210,0.0,0.0,70,0.00,,BKN200,1.65,VWS V14.01,2013-02-27 03:32:00,
2013-02-26 22:37:00,61.8,51.9,29.84,NNW,330,1.0,5.0,70,0.00,,BKN200,1.65,VWS V14.01,2013-02-27 03:37:00,
2013-02-26 22:42:00,62.0,51.7,29.84,South,179,0.0,2.0,69,0.00,,BKN200,1.65,VWS V14.01,2013-02-27 03:42:00,
2013-02-26 22:47:00,62.0,51.7,29.85,East,98,0.0,0.0,69,0.00,,BKN200,1.65,VWS V14.01,2013-02-27 03:47:00,
2013-02-26 22:52:00,62.0,51.3,29.85,NW,310,0.0,0.0,68,0.00,,BKN200,1.65,VWS V14.01,2013-02-27 03:52:00,
2013-02-26 22:58:00,62.0,51.3,29.85,SSE,165,0.0,0.0,68,0.00,,BKN200,1.65,VWS V14.01,2013-02-27 03:58:00,
2013-02-26 23:03:00,62.0,51.3,29.84,SW,227,0.0,0.0,68,0.00,,BKN200,1.65,VWS V14.01,2013-02-27 04:03:00,
2013-02-26 23:08:00,62.0,51.3,29.84,WNW,283,0.0,0.0,68,0.00,,BKN200,1.65,VWS V14.01,2013-02-27 04:08:00,
2013-02-26 23:13:00,62.0,50.9,29.84,WSW,257,0.0,0.0,67,0.00,,BKN200,1.65,VWS V14.01,2013-02-27 04:13:00,
2013-02-26 23:18:00,62.1,51.0,29.84,South,172,0.0,0.0,67,0.00,,BKN200,1.65,VWS V14.01,2013-02-27 04:18:00,
2013-02-26 23:23:00,62.0,50.9,29.84,North,358,0.0,2.0,67,0.00,,BKN200,1.65,VWS V14.01,2013-02-27 04:23:00,
2013-02-26 23:28:00,62.1,51.0,29.84,SSW,200,0.0,0.0,67,0.00,,BKN200,1.65,VWS V14.01,2013-02-27 04:28:00,
2013-02-26 23:33:00,62.1,50.6,29.84,South,169,0.0,2.0,66,0.00,,BKN200,1.65,VWS V14.01,2013-02-27 04:33:00,
2013-02-26 23:38:00,62.1,50.6,29.84,ESE,122,0.0,0.0,66,0.00,,BKN200,1.65,VWS V14.01,2013-02-27 04:38:00,
2013-02-26 23:44:00,62.1,51.0,29.84,NW,306,1.0,1.0,67,0.00,,BKN200,1.65,VWS V14.01,2013-02-27 04:44:00,
2013-02-26 23:49:00,62.1,50.6,29.84,SSW,196,0.0,1.0,66,0.00,,BKN200,1.65,VWS V14.01,2013-02-27 04:49:00,
2013-02-26 23:54:00,62.1,50.6,29.84,SSE,147,0.0,1.0,66,0.00,,BKN200,1.65,VWS V14.01,2013-02-27 04:54:00,
2013-02-26 23:59:00,62.1,50.6,29.84,WSW,250,0.0,1.0,66,0.00,,BKN200,1.65,VWS V14.01,2013-02-27 04:59:00,